Location: Home
(42.5358°N, 72.7383°W)
Time: 11:56:53
(UTC-05:00)

Transit 4A - Pass Details

Date: 06 December 2021
Orbit: 864 x 981 km, 66.8° (Epoch: 19 January)

Event Time Altitude Azimuth Distance (km) Brightness Sun altitude
Rises 01:53:35 0° 335° (NNW) 3,603 - -56.2°
Reaches altitude 10° 01:56:40 10° 350° (N) 2,675 - -55.6°
Maximum altitude 02:01:35 23° 42° (NE) 1,904 - -54.8°
Drops below altitude 10° 02:06:33 10° 94° (E) 2,716 - -54.0°
Exits shadow 02:08:43 - 104° (ESE) 3,358 11.2 -53.6°
Sets 02:09:42 0° 108° (ESE) 3,669 11.4 -53.4°
